Weather History for West Palm Beach, FL

Change the Weather History Date:

Sunday, January 11, 2015

  Actual Average Record
Temperature  
Mean Temperature 76 °F 65 °F  
Max Temperature 79 °F 74 °F 84 °F (2014)
Min Temperature 73 °F 57 °F 33 °F (2010)
Degree Days  
Heating Degree Days 0 3  
Month to date heating degree days 1 33  
Since 1 July heating degree days 43 104  
Cooling Degree Days 11 3  
Month to date cooling degree days 96 40  
Year to date cooling degree days 96 40  
Growing Degree Days 26 (Base 50)    
Moisture  
Dew Point 68 °F    
Average Humidity 77    
Maximum Humidity 87    
Minimum Humidity 67    
Precipitation  
Precipitation 0.07 in 0.10 in 2.30 in (1889)
Month to date precipitation 0.61 1.20  
Year to date precipitation 0.61 1.20  
Snow  
Snow 0.00 in - - ()
Month to date snowfall 0.0  
Since 1 July snowfall 0.0  
Snow Depth 0.00 in    
Sea Level Pressure  
Sea Level Pressure 30.25 in    
Wind  
Wind Speed 16 mph (East)    
Max Wind Speed 24 mph    
Max Gust Speed 31 mph    
Visibility 10 miles    
Events Rain    
T = Trace of Precipitation, MM = Missing Value Source: NWS Daily Summary

Daily Weather History Graph

Daily Weather History Graph

Search for Another Location

Airport:

Trip Planner

Search our weather history database for the weather conditions in past years. The results will help you decide how hot, cold, wet, or windy it might be!

Date:

Astronomy

Jan. 11, 2015 Rise Set
Actual Time 7:10 AM EST 5:46 PM EST
Civil Twilight 6:45 AM EST 6:11 PM EST
Nautical Twilight 6:16 AM EST 6:39 PM EST
Astronomical Twilight 5:48 AM EST 7:08 PM EST
Moon 11:31 PM EST (1/11) 10:58 AM EST (1/11)
Length of Visible Light 11h 25m
Length of Day
10h 35m
Waning Gibbous, 66% of the Moon is Illuminated
Jan 11
Waning Gibbous
Jan 13
Last Quarter
Jan 20
New
Jan 26
First Quarter
Feb 3
Full

Hourly Weather History & Observations

Time (EST) Temp. Dew Point Humidity Pressure Visibility Wind Dir Wind Speed Gust Speed Precip Events Conditions
12:53 AM 73.0 °F 63.0 °F 71% 30.27 in 10.0 mi ENE 12.7 mph - N/A   Partly Cloudy
1:53 AM 73.9 °F 64.9 °F 73% 30.25 in 10.0 mi ENE 10.4 mph - N/A   Scattered Clouds
2:53 AM 73.0 °F 66.9 °F 81% 30.25 in 10.0 mi East 10.4 mph - 0.01 in Rain Light Rain
3:53 AM 73.0 °F 66.9 °F 81% 30.23 in 10.0 mi East 15.0 mph - 0.00 in   Scattered Clouds
4:53 AM 73.9 °F 66.9 °F 79% 30.23 in 10.0 mi East 16.1 mph - N/A   Scattered Clouds
5:53 AM 73.9 °F 66.0 °F 76% 30.25 in 10.0 mi East 16.1 mph 21.9 mph N/A   Scattered Clouds
6:53 AM 73.9 °F 66.0 °F 76% 30.26 in 10.0 mi East 15.0 mph - N/A   Mostly Cloudy
7:15 AM 73.9 °F 66.0 °F 76% 30.27 in 10.0 mi East 13.8 mph - N/A   Mostly Cloudy
7:53 AM 75.0 °F 66.0 °F 73% 30.28 in 10.0 mi East 15.0 mph - N/A   Mostly Cloudy
8:26 AM 75.9 °F 64.9 °F 69% 30.29 in 10.0 mi East 12.7 mph - N/A   Mostly Cloudy
8:53 AM 75.9 °F 66.0 °F 71% 30.30 in 10.0 mi East 18.4 mph 23.0 mph N/A   Mostly Cloudy
9:22 AM 75.9 °F 66.9 °F 74% 30.30 in 10.0 mi East 17.3 mph - N/A   Mostly Cloudy
9:53 AM 77.0 °F 66.9 °F 71% 30.31 in 10.0 mi East 18.4 mph - N/A   Mostly Cloudy
10:53 AM 78.1 °F 66.9 °F 68% 30.29 in 10.0 mi East 18.4 mph 26.5 mph N/A   Mostly Cloudy
11:53 AM 79.0 °F 66.9 °F 66% 30.27 in 10.0 mi East 20.7 mph 26.5 mph N/A   Mostly Cloudy
12:53 PM 77.0 °F 68.0 °F 74% 30.24 in 10.0 mi ENE 18.4 mph 25.3 mph N/A   Mostly Cloudy
1:53 PM 78.1 °F 69.1 °F 74% 30.22 in 10.0 mi East 18.4 mph 25.3 mph N/A   Mostly Cloudy
2:53 PM 77.0 °F 69.1 °F 76% 30.22 in 10.0 mi East 17.3 mph 26.5 mph N/A   Mostly Cloudy
3:53 PM 77.0 °F 69.1 °F 76% 30.22 in 10.0 mi East 20.7 mph 26.5 mph N/A   Mostly Cloudy
4:53 PM 73.9 °F 71.1 °F 91% 30.22 in 5.0 mi East 13.8 mph - 0.04 in Rain Light Rain
5:53 PM 75.0 °F 71.1 °F 87% 30.21 in 10.0 mi East 17.3 mph 26.5 mph 0.02 in   Mostly Cloudy
6:53 PM 75.9 °F 71.1 °F 85% 30.23 in 10.0 mi East 18.4 mph 25.3 mph N/A   Mostly Cloudy
7:53 PM 75.9 °F 71.1 °F 85% 30.25 in 10.0 mi East 17.3 mph - N/A   Mostly Cloudy
8:53 PM 75.0 °F 71.1 °F 87% 30.25 in 10.0 mi East 16.1 mph - N/A   Mostly Cloudy
9:22 PM 75.0 °F 70.0 °F 84% 30.26 in 10.0 mi East 18.4 mph - N/A   Scattered Clouds
9:53 PM 77.0 °F 70.0 °F 79% 30.25 in 10.0 mi East 15.0 mph - N/A   Scattered Clouds
10:53 PM 75.0 °F 71.1 °F 87% 30.24 in 10.0 mi East 15.0 mph - N/A   Scattered Clouds
11:47 PM 75.2 °F 71.6 °F 89% 30.23 in 10.0 mi East 15.0 mph - N/A   Mostly Cloudy
11:53 PM 75.9 °F 71.1 °F 85% 30.23 in 10.0 mi East 15.0 mph - N/A   Mostly Cloudy